Regional Weather Roundup
Issued by NWS

Home | Current Version | Previous Version | Text Only | Print | Product List | Glossary On
Versions: 1 2 3 4 5 6 7 8 9 10 11 12 13 14 15 16 17 18 19 20 21 22 23 24 25 26 27
000
ASPQ40 PGUM 242012
RWRPQ
WEATHER ROUNDUP FOR THE MARIANAS AND MICRONESIA
NATIONAL WEATHER SERVICE TIYAN GU
600 AM GSST FRI APR 25 2014

GUZ001>004-242100-
MARIANA ISLANDS-

CITY           SKY/WX    TMP DP  RH WIND       PRES   REMARKS
GUAM AIRPORT   CLEAR     75  72  88 CALM      29.82R
ANDERSEN AFB   PTCLDY    79  72  78 NE14      29.83R
ROTA AIRPORT   PTCLDY    79  72  78 E10       29.83
TINIAN AP      PTCLDY    79  72  78 NE10      29.81
SAIPAN AP      MOCLDY    81  72  74 E14       29.82R

$$

PMZ161-242100-
REPUBLIC OF PALAU-

CITY           SKY/WX    TMP DP  RH WIND       PRES   REMARKS
KOROR AP       PTCLDY    79  77  94 NE5       29.78R
KOROR WSO      NOT AVBL

$$

PMZ171>174-242100-
FEDERATED STATES OF MICRONESIA-

CITY           SKY/WX    TMP DP  RH WIND       PRES   REMARKS
YAP AIRPORT    MOCLDY    79  72  78 NE9       29.78R
CHUUK AP       CLOUDY    81  77  89 VRB5      29.72R
POHNPEI AP     NOT AVBL
POHNPEI WSO    PTSUNNY   81  77  89 E6        29.79R
KOSRAE AP      NOT AVBL

$$

PMZ181-242100-
REPUBLIC OF THE MARSHALL ISLANDS-

CITY           SKY/WX    TMP DP  RH WIND       PRES   REMARKS
KWAJALEIN AP   MOSUNNY   82  73  74 E20G26    29.80R
MAJURO AP      NOT AVBL
MAJURO WSO     CLOUDY    84  75  74 NE14      29.79R HX  92

$$




USA.gov is the U.S. government's official web portal to all federal, state and local government web resources and services.